DECAYED

OBJECT W, 57024 (Decayed)

Orbit data source: Space-Track

You're viewing an Uncataloged Satellite

Recently launched and/or uncataloged satellites may have evolving metadata. Metadata may include but not limited to: Owner, Maufacturer, Bus, Motor, and Mission.

OBJECT W, 57024 was a Chinese satellite in LEO that was launched on Thu, 15 Jun 2023 UTC via a CHANG ZHENG 2D launch vehicle from the Taiyaun Space Center, China (TSC). Unknown objects in Earth's orbit typically refer to objects detected orbiting the Earth but have not yet been identified or cataloged. These objects could be anything from previously untracked satellites, spent rocket stages, debris from satellite collisions, or even natural meteoroids temporarily captured by Earth's gravity. This object's orbit decayed before it could be identified.

Not visible in the next 10 days
Identifier
57024, 2023-085W
Orbit
Decayed
Country
Flag of CNCN / PRC
Related business
None
Manufacturer
Unknown
Mission
Decayed Commercial Imaging
Bus & Motor
Unknown
Mass
Unknown
Launch date (UTC)
2023-06-15 (3 years ago)
Launch vehicle
CHANG ZHENG 2D
Launch site
Taiyaun Space Center, China (TSC)
Object type
Unknown
Shape & HBR
Box, 0.8 m
Radar Cross Section
2.000 m², Medium (>0.1 m² and < 1m²)

Expand to show TLE details & history
Last TLE update: 8 months ago

TLE from 8 months ago
0 OBJECT W
1 57024U 23085W   25283.88116611  .18344734  26058-5  25454-3 0  9991
2 57024  97.4525  47.3331 0013173 293.0838  66.9076 16.48329582129803
Epoch: 2025-10-10T21:08Z
TLE epoch observation values (Epoch: 2025-10-10T21:08:52.751Z)
Latitude
-0.00011°
Longitude
70.39267°
Altitude
143.638 km
Speed
7.822 km/s
True Right ascension
03h 09m 19s
True Declination
0° 00' 00"
Sunlit
Object was in full shadow at epoch
Visualization orbit readout
Latitude
Unknown
Longitude
Unknown
Altitude
Unknown
Speed
Unknown
Apparent Right ascension
Unknown
Apparent Declination
Unknown
Sunlit
N/A
Visualization observer readout
Local Sidereal Time
21:31:36
Azimuth
Unknown
Elevation
Unknown
Doppler factor
Unknown
Orbital elements
Apogee altitude
149.124 km
Perigee altitude
131.95 km
Semi-major axis
6,518.674 km
Eccentricity
0.00132
Inclination
97.4525°
RAAN
47.3331°
Arg. of periapsis
293.0838°
True anomaly
67.04655°
Mean anomaly
66.9076°
Eccentric anomaly
66.97706°
Mean motion
4.12386 °/min
Orbital period
87.3 mins
BSTAR
0.00025454
Loading maneuver chart data...
Computing Atmospheric mass density...
Loading historical data...
Loading historical data...
Loading historical data...
Loading historical data...
Loading historical data...
Loading historical data...
Loading historical data...

Documentation

Showing up to 5 results
|